Location: Shell Point
(30.0571°N, 84.2896°W)
Time: 14:59:26
(UTC-05:00)

Daily predictions for brighter satellites

Satellite Brightness Start Highest point End
(mag) Time Altitude Azimuth Time Altitude Azimuth Time Altitude Azimuth
ATLAS 2A CENTAUR R/B 4.3 18:44:49 10° W 18:51:16 66° S 19:20:02 10° ESE
Cosmos 2227 Rocket 3.0 18:56:24 10° SSE 19:01:12 29° ESE 19:06:02 10° NE
Cosmos 2219 3.7 18:56:18 10° SSW 19:02:01 69° WNW 19:07:45 10° NNE
Meteor 2-4 Rocket 3.9 18:57:21 10° N 19:02:32 45° E 19:07:37 10° SSE
USA 229 DEB 4.5 18:56:19 10° N 19:02:44 34° NE 19:09:14 10° ESE
USA 229 4.5 18:56:25 10° N 19:02:50 34° NE 19:09:19 10° ESE
Resurs 01 Rocket 3.1 19:04:27 10° ESE 19:07:21 18° ENE 19:10:16 10° NNE
SL-08 ROCKET BODY 4.5 19:03:41 10° S 19:09:47 66° E 19:15:54 10° NNE
NOAA 12 4.1 19:05:37 10° SSE 19:10:50 62° ENE 19:16:06 10° N
Cosmos 1570 Rocket 4.0 19:06:17 10° N 19:11:28 61° ENE 19:16:38 10° SSE
Meteor 1-23 Rocket 4.5 19:08:12 10° N 19:13:45 47° E 19:19:11 10° SSE
Okean 1 Rocket 3.7 19:09:52 10° SSW 19:14:17 62° W 19:18:43 10° N
Cosmos 1025 Rocket 3.4 19:13:45 10° N 19:17:56 43° E 19:22:07 10° SSE
FREGAT/IRIS 2.9 19:15:17 10° SSE 19:18:15 46° ENE 19:21:14 10° N
Cosmos 1340 4.4 19:14:52 10° NNW 19:18:23 37° W 19:21:52 10° SSW
Atlas Centaur 2 3.1 19:17:05 10° SW 19:24:58 53° SSE 19:30:22 16° E
GPS 2-04 Rocket1 3.8 19:22:38 10° WNW 19:26:35 38° N 19:29:35 16° ENE
GEOS 3 Rocket 4.0 19:22:30 10° NE 19:27:30 43° ESE 19:32:31 10° S
Cosmos 1536 4.1 19:25:09 10° SSW 19:28:57 44° W 19:32:46 10° N
OTV 4 2.3 19:27:23 10° WNW 19:29:49 22° NNW 19:31:45 13° NE
FENGYUN 3A 3.9 19:25:23 10° SSE 19:30:33 48° ENE 19:35:44 10° N
Cosmos 2074 Rocket 4.1 19:27:03 10° S 19:33:18 87° W 19:39:37 10° N
Okean 2 3.7 19:31:37 10° N 19:35:38 45° E 19:39:39 10° SSE
HJ-1C 3.5 19:33:28 10° SSE 19:36:44 49° ENE 19:39:59 10° N
ORS 1 (USA 231) 4.5 19:34:41 10° SW 19:37:49 72° SSE 19:39:10 30° ENE
Cosmos 1544 Rocket 3.5 19:35:45 10° S 19:39:57 55° E 19:44:11 10° NNE
Cosmos 2184 Rocket 4.2 19:35:44 10° S 19:42:02 77° W 19:48:18 10° N
Cosmos 1980 4.4 19:39:42 10° N 19:44:41 31° ENE 19:46:48 24° ESE
Cosmos 2208 Rocket 4.4 19:39:52 10° NNW 19:45:15 67° WSW 19:50:31 10° S
NOSS 0 Rocket 4.2 19:39:58 10° N 19:45:47 43° ENE 19:50:08 17° SE
Cosmos 2333 Rocket 2.5 19:42:45 10° N 19:48:14 44° ENE 19:51:57 19° SE
Helios 1B rocket 2.8 19:45:57 10° NNE 19:49:51 39° E 19:53:44 10° S
Helios 1A 4.3 19:52:56 23° NE 19:52:56 23° NE 19:55:14 10° NNE
Cosmos 1975 2.9 19:48:46 10° SSE 19:52:38 48° E 19:56:33 10° NNE
Cosmos 1500 3.3 19:51:12 10° SSE 19:54:51 48° E 19:58:31 10° NNE
Skynet4D Del rocket 3.6 19:54:27 10° W 19:59:54 63° S 20:01:59 36° ESE
Cosmos 1486 Rocket 4.0 19:55:57 10° SSW 20:01:16 90° E 20:06:36 10° NNE
CZ-3 Stage 3 4.2 18:56:38 10° SW 20:01:51 59° SSE 20:07:53 29° E
SL-19 R/B 4.3 19:56:23 10° SSE 20:02:01 75° ENE 20:08:03 10° N
Cosmos 2082 3.8 19:59:14 10° SSW 20:04:57 78° WNW 20:10:41 10° NNE
Nadezhda 3 Rocket 4.0 19:59:12 10° N 20:05:15 56° E 20:11:20 10° SSE
Delta R/B 4.0 19:53:31 10° W 20:06:36 69° S 20:07:49 45° ESE
ATLAS CENTAUR R/B 3.8 20:07:37 10° WSW 20:11:27 21° WNW 20:13:24 11° N
Cosmos 2154 Rocket 4.0 20:05:28 10° S 20:11:49 86° W 20:18:11 10° N
Cosmos 2341 Rocket 3.9 20:07:29 10° S 20:13:48 72° E 20:20:10 10° N
GPS 2-14 Rocket1 4.4 20:11:16 10° SW 20:14:11 21° S 20:14:11 21° S
Cosmos 1455 Rocket 3.5 20:12:49 10° SSW 20:17:09 62° W 20:21:28 10° N
SL-24 R/B - RUBIN 2 4.5 20:12:28 10° SSW 20:18:43 60° ESE 20:21:32 34° NE
Cosmos 1503 Rocket 3.9 20:14:28 10° S 20:19:36 63° ESE 20:20:31 53° ENE
Hubble Space Telescope 0.9 20:16:20 10° W 20:20:16 66° SSW 20:20:16 66° SSW
Cosmos 1763 Rocket 3.9 20:16:11 10° N 20:20:13 43° NE 20:20:13 43° NE
Cosmos 2297 Rocket 2.7 20:18:29 10° SSW 20:24:03 61° WNW 20:29:39 10° NNE
H-2A R/B 3.5 20:22:32 24° SSW 20:24:29 50° W 20:28:08 10° NNW
CZ-3C R/B 3.0 20:23:39 10° SW 20:24:24 12° SSW 20:24:24 12° SSW
ALOS 3.7 20:20:53 10° SSW 20:25:11 37° W 20:29:32 10° NNW
Meteor 2-19 Rocket 4.3 20:19:41 10° S 20:25:42 63° E 20:31:47 10° NNE
Cosmos 405 Rocket 3.8 20:22:09 10° NNW 20:25:59 45° W 20:29:38 11° SSW
SEDSat Delta rocket 3.8 20:20:42 10° WSW 20:27:28 80° SSE 20:28:44 59° E
OAO 3 Rocket 3.6 20:23:03 10° W 20:27:54 54° N 20:28:19 52° N
Cosmos 2237 Rocket 2.0 20:23:22 10° NNW 20:29:05 74° ENE 20:29:45 66° ESE
CZ-2D R/B 4.0 20:30:05 49° NW 20:30:05 49° NW 20:33:05 10° NNW
Meteor 2-8 Rocket 4.4 20:25:12 10° N 20:30:43 57° ENE 20:30:43 57° ENE
Cosmos 1066 Rocket 4.2 20:31:23 10° N 20:36:02 60° NNE 20:36:02 60° NNE
Cosmos 2219 Rocket 3.0 20:32:40 10° NNW 20:38:02 48° WSW 20:42:37 14° S
Resurs 01 Rocket 3.4 20:39:41 10° SSW 20:43:33 30° W 20:47:26 10° NW
Cosmos 2227 Rocket 4.1 20:40:18 10° WSW 20:45:06 28° WNW 20:49:58 10° N
Cosmos 489 Rocket 4.3 20:43:07 10° SSW 20:49:04 82° S 20:49:04 82° S
ATLAS 3B CENTAUR R/B 4.3 20:23:51 10° WSW 20:55:29 70° SSE 20:59:51 52° ESE
SL-16 R/B 3.9 21:00:52 10° NNW 21:03:02 24° N 21:03:02 24° N
NOSS 3-1 (A) 4.0 20:58:57 10° NNW 21:06:35 77° NE 21:06:35 77° NE
Atlas Centaur 2 3.0 21:07:01 10° W 21:13:02 58° WSW 21:13:02 58° WSW
NOSS 3-1 (C) 4.3 21:15:39 10° NW 21:23:31 65° WSW 21:24:02 64° SW
DASH 4.3 21:03:27 10° WSW 21:22:34 61° SW 21:22:34 61° SW
BREEZE-M DEB (TANK) 4.5 21:27:18 10° WNW 21:58:17 - SSE 21:31:05 52° WSW
